User: anonymous   Login
Location: Unspecified
(0.0000°N, 0.0000°E)
Time: 12:54:05
(UTC+00:00)
Language:

Oscar 16 - Orbit

View from above orbital plane
View from above orbital plane
View from above satellite
View from above satellite

Ground track
Ground track

The orbit data is extracted from the following two-line orbital elements,

1 20439U 90005D   21015.88702160 -.00000001  00000-0  16399-4 0  9997
2 20439  98.7734 339.0234 0009736 270.9061 105.1006 14.32812496618550
Epoch (UTC): 15 January 2021 21:17:18
Eccentricity: 0.0009736
inclination: 98.7734°
perigee height: 775 km
apogee height: 789 km
right ascension of ascending node: 339.0234°
argument of perigee: 270.9061°
revolutions per day: 14.32812496
mean anomaly at epoch: 105.1006°
orbit number at epoch: 61855

The dashed part of the orbit path shows where the satellite is in the earth's shadow,  

DLR